Regional Weather Roundup
Issued by NWS

Home | Current Version | Previous Version | Text Only | Print | Product List | Glossary On
Versions: 1 2 3 4 5 6 7 8 9 10 11 12 13 14 15 16 17 18 19 20 21 22 23 24 25 26 27 28 29 30 31 32 33 34 35 36 37 38 39 40 41 42 43 44 45 46 47 48 49 50
000
ASUS43 KMKX 280400
RWRWI

WISCONSIN REGIONAL WEATHER ROUNDUP
NATIONAL WEATHER SERVICE MILWAUKEE/SULLIVAN WI
1100 PM CDT TUE JUN 27 2017

NOTE: "FAIR" INDICATES FEW OR NO CLOUDS BELOW 12,000 FEET WITH NO
SIGNIFICANT WEATHER AND/OR OBSTRUCTIONS TO VISIBILITY.

WIZ001-002-006>008-014>016-023>028-280500-
NORTHWEST WISCONSIN

CITY           SKY/WX    TMP DP  RH WIND       PRES   REMARKS
SUPERIOR ARPT  NOT AVBL
ASHLAND        CLEAR     60  48  64 S6        29.86F
HAYWARD        CLEAR     61  47  59 S8        29.88S
SIREN          CLEAR     62  46  56 CALM      29.86R
CUMBERLAND     PTCLDY    59  45  58 S9        29.87S
RICE LAKE      PTCLDY    62  46  57 SE8       29.89F
CHETEK         PTCLDY    61  48  63 SE10      29.89S
LADYSMITH      CLEAR     62  48  61 SE6       29.93S
EAU CLAIRE     CLEAR     63  48  58 SE10      29.88F
MENOMONIE      CLEAR     60  49  66 SE6       29.88F
NEW RICHMOND   CLOUDY    63  44  49 SE7       29.85S
OSCEOLA        CLOUDY    65  45  46 SE8       29.86F
$$

WIZ003>005-009-010-017-018-280500-
NORTH CENTRAL WISCONSIN

CITY           SKY/WX    TMP DP  RH WIND       PRES   REMARKS
MANITOWISH WTR PTCLDY    55  50  81 S3        29.93R
ARBOR VITAE    CLEAR     57  48  72 SW3       29.94R
WOODRUFF       CLEAR     57  48  72 SW3       29.94R
RHINELANDER    CLEAR     54  49  83 CALM      29.96R
EAGLE RIVER    CLEAR     56  46  66 CALM      29.94S
LAND O LAKES   CLEAR     57  47  70 S3        29.95S
PHILLIPS       CLOUDY    57  49  74 S5        29.93R HAZE
TOMAHAWK       NOT AVBL
MEDFORD        CLEAR     56  49  76 S6        29.95R
MERRILL        CLEAR     59  51  74 SW5       29.96R
$$

WIZ029-030-035-036-043>047-280500-
CENTRAL WISCONSIN

CITY           SKY/WX    TMP DP  RH WIND       PRES   REMARKS
WAUSAU           N/A    N/A N/A N/A MISG      29.95R
MOSINEE        CLEAR     57  50  77 S3        29.98R
MARSHFIELD     CLEAR     56  47  71 S5        29.95S
STEVENS POINT  CLEAR     55  49  81 CALM      29.98R
WAUPACA        CLEAR     59  53  78 CALM      29.98R
WAUTOMA        CLEAR     55  52  89 CALM      29.99
WISC RAPIDS    CLEAR     57  50  77 S3        29.98R
CAMP DOUGLAS   NOT AVBL
$$

WIZ011>013-019>022-031-037>040-048>050-280500-
NORTHEAST WISCONSIN

CITY           SKY/WX    TMP DP  RH WIND       PRES   REMARKS
ANTIGO         CLEAR     54  48  80 S7        29.97S
SHAWANO        CLEAR     63  50  63 CALM      29.96R
OCONTO         CLEAR     62  49  63 SW3       29.95R
STURGEON BAY     N/A     61  51  70 S7        29.97R
GREEN BAY      CLEAR     62  54  74 SW5       29.98R
MANITOWOC      NOT AVBL
APPLETON       PTCLDY    61  45  55 VRB6      29.97R
CLINTONVILLE   CLEAR     55  48  76 S3        29.97R
OSHKOSH        PTCLDY    59  50  72 S6        29.98R
$$

WIZ032>034-041-042-053>061-280500-
SOUTHWEST WISCONSIN

CITY           SKY/WX    TMP DP  RH WIND       PRES   REMARKS
LA CROSSE      CLEAR     66  50  56 SE7       29.93S
SPARTA         CLEAR     53  49  89 E3        29.96S
VIROQUA        CLEAR     62  48  59 S5        29.97R
BOSCOBEL       CLEAR     57  52  83 CALM      29.97R
PRAIRIE DU CHI CLEAR     62  46  54 CALM      29.96R
PLATTEVILLE    CLEAR     60  50  71 SE7       29.98F
$$

WIZ056-057-062-063-064-067-068-280500-
SOUTH CENTRAL WISCONSIN

CITY           SKY/WX    TMP DP  RH WIND       PRES   REMARKS
REEDSBURG      CLEAR     61  49  64 SE3       29.98R
BARABOO/DELLS  CLEAR     58  48  68 S5        29.98R
LONE ROCK      NOT AVBL
MINERAL POINT  CLEAR     61  48  63 S6        29.99R
MADISON        CLEAR     64  49  57 S7        29.99R
MIDDLETON      CLEAR     56  49  77 CALM      30.00R
WATERTOWN      NOT AVBL
MONROE         CLEAR     59  46  63 S7        30.00S
JANESVILLE     CLEAR     63  46  55 S7        30.00S
$$

WIZ051-052-058>065-066-070>072-280500-
SOUTHEAST WISCONSIN

CITY           SKY/WX    TMP DP  RH WIND       PRES   REMARKS
MILWAUKEE      PTCLDY    65  49  56 S9        30.01S
WAUKESHA       PTCLDY    61  46  59 S5        30.02
MILWAUKEE/TIMM PTCLDY    63  45  51 S7        30.02R
RACINE         PTCLDY    64  48  56 S9        30.04R
KENOSHA        PTCLDY    61  50  67 S6        30.02S
FOND DU LAC    PTCLDY    61  48  62 S6        29.99R
SHEBOYGAN      CLEAR     57  52  83 S5        30.00R
WEST BEND      PTCLDY    55  52  88 CALM      30.01R
JUNEAU         PTCLDY    60  49  65 S5        30.01R
$$

LSZ147-162-280500-
LAKE SUPERIOR

STATION/POSITION TIME  TEMP    WIND        PRES    WAVE
                       AIR SEA DIR/SP/G            HT/PER
                 (UTC) (F)     (DEG/KT/KT) (MB)    (FT/S)
W MID LAKE BUOY  0250   47 39  180/  8/ 10 1010.9R   0
DEVILS ISLAND    0300   69     190/ 10/ 13 1010.2F
SAXON HARBOR     0340   60     200/  3/  6 1011.2S
$$

LMZ867-665-643>646-280500-
LAKE MICHIGAN

STATION/POSITION TIME  TEMP    WIND        PRES    WAVE
                       AIR SEA DIR/SP/G            HT/PER
                 (UTC) (F)     (DEG/KT/KT) (MB)    (FT/S)
CHAMBERS ISLAND  0340   64     170/  2/  6 1013.9R
S GREEN BAY BUOY 0300   68     200/ 10/ 12 1013.8
N MID LAKE BUOY  0250   58 54  180/ 14/ 16 1014.8R   2/ 4
NORTHPORT PIER   0340   61     190/  3/  7 1013.9S
KEWAUNEE LAKESHO 0330   55     180/  6/  8 1014.6R
SHEBOYGAN LAKESH 0300   61     190/ 14/ 16 1015.5R
PORT WASHINGTON  0330   56     190/  6/  8 1016.9R
ATWATER BUOY     0209   61 57  170/ 12/ 14 1015.7S
MILWAUKEE LAKESH 0330   64     200/ 10/ 12   N/A
S MID LAKE BUOY  0250   63 61  160/ 10/ 12 1016.8R   1/ 3
KENOSHA   LAKESH 0300   63     180/ 10/ 15 1016.3
$$

TC  - TEMPERATURE IN CELSIUS
VSB - VISIBILITY IN STATUTE MILES
WCI - WIND CHILL INDEX
HX  - HEAT INDEX





USA.gov is the U.S. government's official web portal to all federal, state and local government web resources and services.